| time (UTC) | temp F | wind direction | speed knots | gust knots | rain 1hr in | rain 24hr in | rain mn in | humidity % | barometer mb |
| 20260901220302 | 75 | 70 | 7.8 | 0.0 | 0.00 | 0.00 | 0.00 | 57 | 1018.0 |
| 20260901214803 | 75 | 60 | 7.8 | 0.0 | 0.00 | 0.00 | 0.00 | 57 | 1017.0 |
| 20260901213405 | 77 | 40 | 7.0 | 0.0 | 0.00 | 0.00 | 0.00 | 54 | 1017.0 |
| 20260901211802 | 77 | 40 | 7.0 | 0.0 | 0.00 | 0.00 | 0.00 | 54 | 1017.0 |
| 20260901210332 | 77 | 40 | 7.0 | 0.0 | 0.00 | 0.00 | 0.00 | 54 | 1017.0 |
| 20260901204804 | 77 | 70 | 2.6 | 0.0 | 0.00 | 0.00 | 0.00 | 51 | 1017.0 |
| 20260901203334 | 77 | 70 | 2.6 | 0.0 | 0.00 | 0.00 | 0.00 | 51 | 1017.0 |
| 20260901201803 | 75 | 20 | 6.1 | 0.0 | 0.00 | 0.00 | 0.00 | 54 | 1017.0 |
| 20260901200302 | 75 | 20 | 6.1 | 0.0 | 0.00 | 0.00 | 0.00 | 54 | 1017.0 |
| 20260901194915 | 75 | 20 | 2.6 | 0.0 | 0.00 | 0.00 | 0.00 | 54 | 1017.0 |
| 20260901193325 | 75 | 20 | 2.6 | 0.0 | 0.00 | 0.00 | 0.00 | 54 | 1017.0 |
| 20260901191825 | 77 | 50 | 2.6 | 0.0 | 0.00 | 0.00 | 0.00 | 51 | 1017.0 |
| 20260901190316 | 77 | 50 | 2.6 | 0.0 | 0.00 | 0.00 | 0.00 | 51 | 1017.0 |
| 20260901184802 | 77 | 0 | 0.0 | 0.0 | 0.00 | 0.00 | 0.00 | 51 | 1016.0 |
| 20260901183302 | 77 | 0 | 0.0 | 0.0 | 0.00 | 0.00 | 0.00 | 51 | 1016.0 |
| 20260901181802 | 77 | 120 | 1.7 | 0.0 | 0.00 | 0.00 | 0.00 | 47 | 1016.0 |
| 20260901180302 | 77 | 120 | 1.7 | 0.0 | 0.00 | 0.00 | 0.00 | 47 | 1016.0 |
| 20260901174801 | 79 | 110 | 4.3 | 0.0 | 0.00 | 0.00 | 0.00 | 45 | 1016.0 |
| 20260901173303 | 79 | 110 | 4.3 | 0.0 | 0.00 | 0.00 | 0.00 | 45 | 1016.0 |
| 20260901171803 | 82 | 60 | 5.2 | 0.0 | 0.00 | 0.00 | 0.00 | 37 | 1015.0 |
| 20260901170302 | 82 | 60 | 5.2 | 0.0 | 0.00 | 0.00 | 0.00 | 37 | 1015.0 |
| 20260901164803 | 86 | 90 | 6.1 | 0.0 | 0.00 | 0.00 | 0.00 | 33 | 1015.0 |
| 20260901163309 | 86 | 90 | 6.1 | 0.0 | 0.00 | 0.00 | 0.00 | 33 | 1015.0 |
| 20260901161802 | 88 | 90 | 5.2 | 0.0 | 0.00 | 0.00 | 0.00 | 31 | 1015.0 |
| 20260901160306 | 88 | 90 | 5.2 | 0.0 | 0.00 | 0.00 | 0.00 | 31 | 1015.0 |
| 20260901154802 | 88 | 0.9 | 0.0 | 0.00 | 0.00 | 0.00 | 33 | 1015.0 | |
| 20260901153302 | 88 | 0.9 | 0.0 | 0.00 | 0.00 | 0.00 | 33 | 1015.0 | |
| 20260901151802 | 86 | 240 | 2.6 | 0.0 | 0.00 | 0.00 | 0.00 | 31 | 1015.0 |
| 20260901150302 | 86 | 240 | 2.6 | 0.0 | 0.00 | 0.00 | 0.00 | 31 | 1015.0 |
| 20260901144840 | 90 | 300 | 7.0 | 0.0 | 0.00 | 0.00 | 0.00 | 27 | 1015.0 |
| 20260901143302 | 90 | 300 | 7.0 | 0.0 | 0.00 | 0.00 | 0.00 | 27 | 1015.0 |
| 20260901141815 | 90 | 310 | 6.1 | 0.0 | 0.00 | 0.00 | 0.00 | 29 | 1015.0 |
| 20260901140415 | 91 | 2.6 | 0.0 | 0.00 | 0.00 | 0.00 | 24 | 1015.0 | |
| 20260901134802 | 91 | 2.6 | 0.0 | 0.00 | 0.00 | 0.00 | 24 | 1015.0 | |
| 20260901133302 | 91 | 2.6 | 0.0 | 0.00 | 0.00 | 0.00 | 24 | 1015.0 | |
| 20260901131810 | 90 | 270 | 5.2 | 0.0 | 0.00 | 0.00 | 0.00 | 24 | 1015.0 |
| 20260901130301 | 90 | 270 | 5.2 | 0.0 | 0.00 | 0.00 | 0.00 | 24 | 1015.0 |
| 20260901124808 | 90 | 4.3 | 0.0 | 0.00 | 0.00 | 0.00 | 24 | 1016.0 | |
| 20260901123302 | 90 | 4.3 | 0.0 | 0.00 | 0.00 | 0.00 | 24 | 1016.0 | |
| 20260901121801 | 90 | 320 | 6.1 | 0.0 | 0.00 | 0.00 | 0.00 | 24 | 1016.0 |
| 20260901120302 | 90 | 320 | 6.1 | 0.0 | 0.00 | 0.00 | 0.00 | 24 | 1016.0 |
| 20260901114802 | 88 | 300 | 5.2 | 0.0 | 0.00 | 0.00 | 0.00 | 24 | 1016.0 |
| 20260901113302 | 88 | 300 | 5.2 | 0.0 | 0.00 | 0.00 | 0.00 | 24 | 1016.0 |
| 20260901111802 | 88 | 170 | 2.6 | 0.0 | 0.00 | 0.00 | 0.00 | 24 | 1016.0 |
| 20260901110302 | 88 | 170 | 2.6 | 0.0 | 0.00 | 0.00 | 0.00 | 24 | 1016.0 |
| 20260901104802 | 86 | 2.6 | 0.0 | 0.00 | 0.00 | 0.00 | 25 | 1016.0 | |
| 20260901103302 | 86 | 2.6 | 0.0 | 0.00 | 0.00 | 0.00 | 25 | 1016.0 | |
| 20260901101858 | 86 | 0.9 | 0.0 | 0.00 | 0.00 | 0.00 | 25 | 1016.0 | |
| 20260901100304 | 86 | 0.9 | 0.0 | 0.00 | 0.00 | 0.00 | 25 | 1016.0 | |
| 20260901094803 | 84 | 1.7 | 0.0 | 0.00 | 0.00 | 0.00 | 27 | 1016.0 | |
| 20260901093302 | 84 | 1.7 | 0.0 | 0.00 | 0.00 | 0.00 | 27 | 1016.0 | |
| 20260901091802 | 82 | 90 | 4.3 | 0.0 | 0.00 | 0.00 | 0.00 | 28 | 1017.0 |
| 20260901090303 | 82 | 90 | 4.3 | 0.0 | 0.00 | 0.00 | 0.00 | 28 | 1017.0 |
| 20260901084802 | 81 | 40 | 4.3 | 0.0 | 0.00 | 0.00 | 0.00 | 32 | 1017.0 |
| 20260901083311 | 81 | 40 | 4.3 | 0.0 | 0.00 | 0.00 | 0.00 | 32 | 1017.0 |
| 20260901081801 | 81 | 50 | 5.2 | 0.0 | 0.00 | 0.00 | 0.00 | 39 | 1017.0 |
| 20260901080304 | 81 | 50 | 5.2 | 0.0 | 0.00 | 0.00 | 0.00 | 39 | 1017.0 |
| 20260901074808 | 77 | 60 | 5.2 | 0.0 | 0.00 | 0.00 | 0.00 | 47 | 1017.0 |
| 20260901073302 | 77 | 60 | 5.2 | 0.0 | 0.00 | 0.00 | 0.00 | 47 | 1017.0 |
| 20260901071801 | 75 | 50 | 4.3 | 0.0 | 0.00 | 0.00 | 0.00 | 50 | 1017.0 |
| 20260901070301 | 75 | 50 | 4.3 | 0.0 | 0.00 | 0.00 | 0.00 | 50 | 1017.0 |
| 20260901064802 | 72 | 30 | 5.2 | 0.0 | 0.00 | 0.00 | 0.00 | 57 | 1017.0 |
| 20260901063302 | 72 | 30 | 5.2 | 0.0 | 0.00 | 0.00 | 0.00 | 57 | 1017.0 |
| 20260901061802 | 70 | 350 | 5.2 | 0.0 | 0.00 | 0.00 | 0.00 | 57 | 1017.0 |
| 20260901060302 | 70 | 350 | 5.2 | 0.0 | 0.00 | 0.00 | 0.00 | 57 | 1017.0 |
| 20260901054802 | 68 | 20 | 4.3 | 0.0 | 0.00 | 0.00 | 0.00 | 64 | 1017.0 |
| 20260901053302 | 68 | 20 | 4.3 | 0.0 | 0.00 | 0.00 | 0.00 | 64 | 1017.0 |
| 20260901051802 | 64 | 30 | 5.2 | 0.0 | 0.00 | 0.00 | 0.00 | 73 | 1016.0 |
| 20260901050302 | 64 | 30 | 5.2 | 0.0 | 0.00 | 0.00 | 0.00 | 73 | 1016.0 |
| 20260901044825 | 64 | 20 | 6.1 | 0.0 | 0.00 | 0.00 | 0.00 | 73 | 1016.0 |
| 20260901043302 | 64 | 20 | 6.1 | 0.0 | 0.00 | 0.00 | 0.00 | 73 | 1016.0 |
| 20260901041802 | 63 | 30 | 5.2 | 0.0 | 0.00 | 0.00 | 0.00 | 77 | 1016.0 |
| 20260901040301 | 63 | 30 | 5.2 | 0.0 | 0.00 | 0.00 | 0.00 | 77 | 1016.0 |
| 20260901034802 | 61 | 50 | 2.6 | 0.0 | 0.00 | 0.00 | 0.00 | 83 | 1016.0 |
| 20260901033302 | 61 | 50 | 2.6 | 0.0 | 0.00 | 0.00 | 0.00 | 83 | 1016.0 |
| 20260901031801 | 63 | 90 | 2.6 | 0.0 | 0.00 | 0.00 | 0.00 | 73 | 1016.0 |
| 20260901030301 | 63 | 90 | 2.6 | 0.0 | 0.00 | 0.00 | 0.00 | 73 | 1016.0 |
| 20260901024802 | 63 | 60 | 2.6 | 0.0 | 0.00 | 0.00 | 0.00 | 73 | 1016.0 |
| 20260901023301 | 63 | 60 | 2.6 | 0.0 | 0.00 | 0.00 | 0.00 | 73 | 1016.0 |
| 20260901021802 | 64 | 60 | 2.6 | 0.0 | 0.00 | 0.00 | 0.00 | 68 | 1016.0 |
| 20260901020301 | 64 | 60 | 2.6 | 0.0 | 0.00 | 0.00 | 0.00 | 68 | 1016.0 |
| 20260901014802 | 64 | 40 | 4.3 | 0.0 | 0.00 | 0.00 | 0.00 | 68 | 1016.0 |
| 20260901013302 | 64 | 40 | 4.3 | 0.0 | 0.00 | 0.00 | 0.00 | 68 | 1016.0 |
| 20260901011802 | 64 | 60 | 2.6 | 0.0 | 0.00 | 0.00 | 0.00 | 68 | 1016.0 |
| 20260901010303 | 64 | 60 | 2.6 | 0.0 | 0.00 | 0.00 | 0.00 | 68 | 1016.0 |
| 20260901004802 | 64 | 50 | 2.6 | 0.0 | 0.00 | 0.00 | 0.00 | 68 | 1017.0 |
| 20260901003302 | 64 | 50 | 2.6 | 0.0 | 0.00 | 0.00 | 0.00 | 68 | 1017.0 |
| 20260901001801 | 66 | 10 | 6.1 | 0.0 | 0.00 | 0.00 | 0.00 | 60 | 1017.0 |
| 20260901000303 | 66 | 10 | 6.1 | 0.0 | 0.00 | 0.00 | 0.00 | 60 | 1017.0 |
| 20260831234802 | 68 | 10 | 7.0 | 0.0 | 0.00 | 0.00 | 0.00 | 56 | 1017.0 |
| 20260831233302 | 68 | 10 | 7.0 | 0.0 | 0.00 | 0.00 | 0.00 | 56 | 1017.0 |
| 20260831231803 | 68 | 30 | 4.3 | 0.0 | 0.00 | 0.00 | 0.00 | 53 | 1017.0 |
| 20260831230302 | 68 | 30 | 4.3 | 0.0 | 0.00 | 0.00 | 0.00 | 53 | 1017.0 |
| 20260831224801 | 68 | 60 | 2.6 | 0.0 | 0.00 | 0.00 | 0.00 | 49 | 1017.0 |
| 20260831223302 | 68 | 60 | 2.6 | 0.0 | 0.00 | 0.00 | 0.00 | 49 | 1017.0 |
| 20260831221802 | 68 | 140 | 2.6 | 0.0 | 0.00 | 0.00 | 0.00 | 53 | 1017.0 |